Location: Aulus
(42.7909°N, 1.3399°E)
Time: 21:04:15
(UTC+00:00)

Cosmos 1605 Rocket - Pass Details

Date: 19 May 2025
Orbit: 943 x 1005 km, 82.9° (Epoch: 21 June)

Event Time Altitude Azimuth Distance (km) Brightness Sun altitude
Rises 23:25:40 0° 351° (N) 3,722 8.4 -26.9°
Reaches altitude 10° 23:28:13 10° 350° (N) 2,761 7.4 -27.0°
Maximum altitude 23:34:33 82° 265° (W) 995 3.9 -27.1°
Enters shadow 23:35:18 70° 198° (SSW) 1,038 3.8 -27.1°
